Lid_Strength_Index
7 9 9 8 7 7 7 8 9 7 6 6 7 7 6 4 4 5 5 4 4 4 3 2 2 3 3 1 0 0 0 -0 0 1 1 1 1 1 0 -0 -1 -1 -1 -1
8 10 7 6 7 7 7 8 9 7 6 6 7 7 6 5 5 4 5 5 4 4 4 3 3 3 3 1 1 1 1 1 0 0 0 0 0 0 -0 -0 -1 -1 -1 -1
9 8 6 7 8 8 8 9 8 9 7 6 7 8 7 5 4 4 4 3 4 4 4 4 4 3 2 2 1 1 1 1 0 -0 0 0 -0 -0 1 0 0 -0 -1 -1
8 6 7 8 8 7 9 7 7 8 9 11 7 12 8 6 6 5 4 4 4 4 4 5 5 4 2 2 1 1 1 0 0 -0 0 0 1 2 1 1 0 -0 -1 -1
9 7 7 8 7 6 8 6 7 8 9 9 9 10 9 6 7 6 5 5 5 4 6 7 6 5 2 1 1 1 0 0 -0 -0 -0 1 1 1 0 -0 -1 -2 -1 -1
7 5 6 6 6 6 6 7 7 7 9 12 10 10 11 8 7 6 5 5 5 4 3 3 3 2 2 1 1 1 1 1 -0 -0 -0 0 1 -0 0 0 0 0 -0 -1
8 7 6 5 7 6 7 8 12 13 13 13 9 10 10 7 6 6 6 5 4 4 3 3 3 3 2 1 1 1 1 1 0 0 0 0 0 0 0 0 0 -0 0 -0
11 12 7 6 7 8 8 8 12 15 14 13 9 12 8 6 5 5 5 4 4 4 3 3 3 2 2 2 1 1 1 1 0 0 0 -0 -0 0 0 -0 0 0 0 -0
11 10 6 6 6 6 8 10 7 11 10 12 11 9 8 6 6 5 5 5 5 4 3 3 3 3 2 2 1 1 1 1 1 0 -0 -0 -0 -0 0 -1 -1 -0 -1 -0
8 11 7 7 6 6 7 6 11 10 15 15 12 11 10 9 8 6 6 6 5 4 3 4 3 3 3 3 3 2 2 2 2 1 1 1 1 1 1 1 0 0 -0 -0
7 9 11 8 9 9 9 9 9 10 11 15 15 13 7 7 7 7 6 5 4 4 4 4 4 3 3 3 3 3 3 3 2 2 2 2 2 2 1 1 1 1 1 1
6 9 13 11 8 7 8 9 9 14 13 11 12 13 6 6 6 6 5 5 4 3 3 3 3 3 3 3 3 4 3 4 3 3 3 3 2 2 2 2 2 2 2 2
7 10 16 14 10 8 10 9 9 10 10 13 14 13 7 6 6 5 5 5 4 4 4 4 4 4 4 4 4 4 4 4 4 4 4 4 3 3 3 3 2 2 2 2
6 10 13 15 14 10 11 10 9 10 13 13 13 14 9 8 7 6 5 4 4 5 5 5 5 5 5 5 5 5 5 5 5 5 5 4 4 3 3 2 2 2 2 2
7 12 11 11 10 10 10 10 10 10 10 12 10 11 9 7 7 6 5 5 5 5 5 5 5 5 5 5 5 6 6 5 4 4 4 3 3 3 3 3 3 3 3 3
8 12 11 13 11 10 11 10 10 10 10 10 10 10 6 6 5 6 5 5 5 4 5 5 5 4 5 5 4 4 4 4 4 4 4 4 4 4 4 4 4 4 5 5
9 11 12 14 11 10 12 9 9 9 8 9 11 8 6 7 6 6 5 4 5 5 5 5 5 5 5 5 4 5 5 4 5 5 5 5 5 6 6 6 6 7 7 7
9 10 10 13 11 15 11 7 7 8 8 7 8 7 7 6 5 5 4 5 5 5 5 5 5 5 5 5 5 5 5 6 6 6 6 6 7 7 8 8 8 8 9 9
7 9 13 14 13 12 11 9 9 10 10 7 7 7 6 5 5 5 5 5 5 5 5 6 5 6 5 6 6 6 6 6 6 7 7 7 9 9 9 9 9 9 9 9
7 7 10 12 16 16 11 8 6 7 15 7 6 7 7 6 8 8 5 5 5 5 6 6 6 6 6 6 6 7 7 7 8 8 10 9 8 9 8 8 8 8 8 8
11 11 14 12 14 12 9 7 6 14 14 6 6 6 6 7 6 5 5 6 6 6 6 6 6 7 7 8 8 9 9 10 12 10 9 8 8 8 8 8 8 7 7 7
12 13 14 12 15 17 7 7 11 8 5 5 5 6 6 6 6 6 6 6 7 7 8 8 9 9 9 9 9 10 13 12 10 10 9 9 9 8 8 7 6 5 6 6
13 10 12 11 12 7 6 6 5 4 5 5 6 6 7 7 7 7 7 8 9 10 10 10 11 11 10 10 13 14 13 11 10 10 10 9 8 7 7 6 5 6 6 6
9 7 9 9 9 7 6 5 5 5 6 6 6 7 7 7 7 8 9 10 11 11 11 11 11 11 14 14 14 13 11 11 11 12 11 9 8 7 6 5 5 4 5 5
8 7 9 10 8 7 7 6 6 7 6 7 7 7 7 8 9 10 11 11 11 12 11 11 13 15 15 14 14 13 12 12 12 12 11 9 7 6 5 6 6 6 4 5
7 8 9 11 7 7 7 7 7 7 7 7 7 8 7 8 9 10 11 11 12 11 13 15 15 15 16 15 14 13 12 12 13 13 12 10 8 6 6 7 7 7 7 7